DateTimeUTC,F1_A11,F1_S11,BsB_S11,BsG_S11,BsR_S11,BbsB_S11,BbsG_S11,BbsR_S11,BaB_A11,BaG_A11,BaR_A11,Tu_S11,T_S11,Uu_S11,U_S11,P_S11,T1_A11
2021-08-01T10:00:00Z,00000200,20000000,,,,,,,0000.16,0000.28,-000.06,18.5,25.2,09.7,06.4,0678.3,31.0
2021-08-01T10:01:00Z,00000200,20000000,,,,,,,-000.38,-000.25,-000.20,18.5,25.2,09.6,06.4,0678.3,31.0
2021-08-01T10:02:00Z,00000200,20000000,,,,,,,0000.11,-000.04,0000.26,18.5,25.2,09.5,06.3,0678.3,31.0
2021-08-01T10:03:00Z,00000200,60000000,,,,,,,0000.39,0000.91,0000.19,18.5,25.2,09.5,06.3,0678.3,31.0
2021-08-01T10:04:00Z,00000200,40000000,0001.60,0001.09,0000.75,0000.15,0000.30,0000.18,0000.64,-000.10,0000.14,18.7,25.1,09.6,06.5,0679.1,31.0
2021-08-01T10:05:00Z,00000200,00000000,0001.12,0001.03,0000.44,0000.87,0000.28,-000.04,-000.04,0000.17,0000.14,18.7,25.0,09.5,06.5,0679.2,31.0
2021-08-01T10:06:00Z,00000200,00000000,0001.03,0001.16,0000.61,0000.32,0000.23,0000.22,0000.53,0000.81,0000.32,18.7,25.0,09.6,06.5,0679.3,31.0
2021-08-01T10:07:00Z,00000200,00000000,0000.81,0001.02,0000.38,0000.44,0000.18,0000.18,0000.35,0000.23,0000.05,18.7,25.0,09.5,06.5,0679.3,31.0
2021-08-01T10:08:00Z,00000200,00000000,0001.60,0001.32,0000.90,0000.65,-000.14,0000.45,0000.49,0000.32,0000.61,18.7,25.0,09.6,06.5,0679.3,31.0
2021-08-01T10:09:00Z,00000200,00000000,0002.13,0001.52,0000.92,0000.04,0000.13,0000.18,0000.69,0001.05,0000.80,18.7,25.0,09.8,06.7,0679.3,31.0
2021-08-01T10:10:00Z,00000200,00000000,0001.20,0001.43,0000.65,0000.59,0000.10,-000.00,0000.66,0000.34,0000.39,18.7,25.0,09.8,06.7,0679.2,31.0
2021-08-01T10:11:00Z,00000200,00000000,0001.87,0001.31,0001.04,0000.56,0000.04,0000.17,0000.78,0000.57,0000.22,18.7,25.0,09.8,06.7,0679.2,31.0
2021-08-01T10:12:00Z,00000200,00000000,0001.16,0001.08,0000.74,0000.07,-000.10,0000.28,-000.11,-000.14,0000.16,18.8,25.0,09.8,06.7,0679.2,31.0
2021-08-01T10:13:00Z,00000200,00000000,0001.31,0000.82,0000.71,0000.37,0000.07,0000.22,0000.29,0000.11,-000.10,18.8,25.0,09.6,06.6,0679.2,31.0
2021-08-01T10:14:00Z,00000200,00000000,0000.82,0001.09,0000.72,0000.52,0000.10,0000.16,0000.22,0000.08,0000.17,18.8,25.0,09.5,06.5,0679.2,31.0
2021-08-01T10:15:00Z,00000200,00000000,0001.48,0000.97,0000.69,0000.66,0000.06,0000.20,0000.79,0000.61,0000.61,18.8,25.0,09.6,06.6,0679.3,31.0
2021-08-01T10:16:00Z,00000200,00000000,0001.40,0001.33,0000.52,-000.14,0000.14,0000.31,0000.71,0000.87,0000.63,18.8,25.0,09.8,06.7,0679.2,31.0
2021-08-01T10:17:00Z,00000200,00000000,0001.97,0001.93,0000.80,0000.23,0000.39,0000.12,0000.51,0000.55,0000.31,18.8,25.0,09.9,06.8,0679.2,31.0
2021-08-01T10:18:00Z,00000200,00000000,0001.88,0001.53,0001.07,0000.73,0000.26,0000.33,0000.56,0000.31,0000.17,18.8,25.0,09.8,06.7,0679.2,31.0
2021-08-01T10:19:00Z,00000200,00000000,0002.53,0001.64,0000.72,0000.49,0000.28,0000.13,0000.46,0000.99,0000.40,18.9,25.0,09.8,06.7,0679.2,31.0
2021-08-01T10:20:00Z,00000200,00000000,0001.44,0001.18,0000.37,0000.44,0000.30,0000.12,0000.19,-000.09,0000.31,18.9,25.1,09.7,06.7,0679.2,31.0
2021-08-01T10:21:00Z,00000200,00000000,0001.07,0000.86,0000.81,0000.45,-000.02,-000.01,0000.34,0000.36,0000.12,18.9,25.1,09.6,06.6,0679.2,31.0
2021-08-01T10:22:00Z,00000200,00000000,0002.45,0001.24,0000.52,0000.96,0000.10,0000.08,0000.73,0000.55,0000.35,18.9,25.1,09.5,06.5,0679.2,31.0
2021-08-01T10:23:00Z,00000200,00000000,0001.82,0001.03,0000.48,0000.37,0000.51,0000.17,0000.47,0000.26,0000.39,18.9,25.1,09.5,06.5,0679.2,31.0
2021-08-01T10:24:00Z,00000200,00000000,0002.22,0001.45,0000.72,0000.18,0000.56,-000.04,0000.75,0000.68,0000.45,18.9,25.1,09.7,06.6,0679.2,31.0
2021-08-01T10:25:00Z,00000200,00000000,0002.22,0001.73,0000.92,0000.50,0000.59,0000.07,0000.65,0000.19,0000.36,18.9,25.1,09.8,06.8,0679.2,31.0
2021-08-01T10:26:00Z,00000200,00000000,0002.00,0001.45,0000.74,0000.29,0000.18,0000.25,0000.39,0000.59,0000.33,18.9,25.1,09.7,06.7,0679.2,31.0
2021-08-01T10:27:00Z,00000200,00000000,0002.08,0001.65,0001.01,0000.53,0000.18,0000.04,0000.54,0000.60,0000.41,18.9,25.1,09.8,06.7,0679.2,31.0
2021-08-01T10:28:00Z,00000200,00000000,0002.06,0001.63,0000.67,0000.52,0000.20,-000.32,0000.64,0000.79,0000.33,18.9,25.1,09.7,06.7,0679.2,31.0
2021-08-01T10:29:00Z,00000200,00000000,0001.15,0001.23,0000.91,0000.61,0000.23,0000.46,0000.41,0000.27,0000.66,18.9,25.1,09.7,06.6,0679.2,31.0
2021-08-01T10:30:00Z,00000200,00000000,0001.67,0001.34,0000.78,0000.22,0000.22,0000.00,0000.29,0000.40,0000.05,18.9,25.1,09.6,06.6,0679.2,31.0
2021-08-01T10:31:00Z,00000200,00000000,0001.74,0002.09,0000.97,0000.50,0000.53,0000.03,0000.94,0000.32,0000.58,18.9,25.1,09.7,06.6,0679.2,31.0
2021-08-01T10:32:00Z,00000200,00000000,0001.28,0000.95,0000.61,0000.79,0000.25,0000.30,-000.03,0000.30,0000.23,18.9,25.1,09.2,06.4,0679.1,31.0
2021-08-01T10:33:00Z,00000200,00000000,0001.63,0001.18,0000.51,0000.47,0000.37,0000.11,0000.89,0000.41,0000.11,18.9,25.1,09.2,06.3,0679.2,31.0
2021-08-01T10:34:00Z,00000200,00000000,0002.10,0001.28,0000.76,0001.05,0000.29,-000.17,0000.11,0000.43,0000.19,18.9,25.1,09.2,06.3,0679.2,31.0
2021-08-01T10:35:00Z,00000200,00000000,0001.64,0001.37,0000.51,0000.68,0000.10,0000.16,0000.37,0000.54,0000.76,18.9,25.0,09.2,06.4,0679.2,31.0
2021-08-01T10:36:00Z,00000200,00000000,0001.87,0001.02,0000.76,0000.47,0000.26,0000.01,0000.75,0000.36,-000.22,18.9,25.1,09.2,06.3,0679.2,31.0
2021-08-01T10:37:00Z,00000200,00000000,0001.79,0001.46,0001.11,0000.07,-000.08,0000.24,0000.32,0000.27,0000.68,18.9,25.1,09.2,06.3,0679.2,31.0
2021-08-01T10:38:00Z,00000200,00000000,0002.32,0001.44,0000.79,0000.06,0000.38,0000.45,0000.44,0000.65,0000.08,18.9,25.1,09.2,06.3,0679.2,31.0
2021-08-01T10:39:00Z,00000200,00000000,0002.29,0001.20,0001.02,0000.15,0000.23,0000.33,0000.53,0000.31,0000.37,18.9,25.1,09.2,06.3,0679.2,31.0
2021-08-01T10:40:00Z,00000200,00000000,0002.55,0001.20,0000.60,0000.23,0000.58,0000.30,0000.54,0000.30,0000.39,18.9,25.1,09.3,06.4,0679.1,31.0
2021-08-01T10:41:00Z,00000200,00000000,0000.77,0001.03,0000.73,0000.47,0000.34,-000.02,0000.72,0000.92,0000.58,18.9,25.1,09.2,06.3,0679.2,31.0
2021-08-01T10:42:00Z,00000200,00000000,0001.03,0001.23,0000.70,0000.77,0000.39,0000.04,0000.58,0000.57,0000.21,18.9,25.1,09.3,06.4,0679.2,31.0
2021-08-01T10:43:00Z,00000200,00000000,0001.01,0001.25,0000.60,0000.70,0000.33,0000.25,0000.50,0000.27,0000.50,18.9,25.1,09.3,06.4,0679.2,31.0
2021-08-01T10:44:00Z,00000200,00000000,0001.89,0001.87,0000.76,0000.63,0000.31,0000.36,0000.33,0000.60,0000.53,18.9,25.0,09.5,06.5,0679.2,31.0
2021-08-01T10:45:00Z,00000200,00000000,0001.94,0001.14,0000.69,0000.47,0000.29,-000.01,0000.50,0000.29,-000.17,18.9,25.0,09.3,06.4,0679.2,31.0
2021-08-01T10:46:00Z,00000200,00000000,0002.15,0001.90,0001.18,0000.49,0000.52,-000.00,0000.84,0001.00,0000.79,18.9,25.0,09.4,06.5,0679.2,31.0
2021-08-01T10:47:00Z,00000200,00000000,0002.17,0001.44,0000.91,0000.53,0000.34,0000.14,0000.22,-000.07,-000.08,18.9,25.1,09.3,06.4,0679.1,31.0
2021-08-01T10:48:00Z,00000200,00000000,0002.30,0001.64,0000.41,0000.70,0000.36,-000.21,0000.37,0000.28,0000.47,18.9,25.1,09.3,06.4,0679.1,31.0
2021-08-01T10:49:00Z,00000200,00000000,0001.50,0001.41,0000.28,0000.39,0000.28,0000.17,0000.40,0000.36,0000.30,18.9,25.1,09.3,06.4,0679.1,31.0
2021-08-01T10:50:00Z,00000200,00000000,0002.31,0001.01,0000.81,0000.02,0000.15,0000.12,0000.71,0000.68,0000.27,18.9,25.1,09.3,06.4,0679.1,31.0
2021-08-01T10:51:00Z,00000200,00000000,0001.88,0001.30,0000.87,0000.17,0000.11,-000.01,0000.23,0000.55,0000.47,18.9,25.1,09.3,06.4,0679.1,31.0
2021-08-01T10:52:00Z,00000200,00000000,0001.88,0001.29,0000.98,0000.81,0000.40,0000.30,0000.69,0000.33,0000.18,18.9,25.1,09.4,06.4,0679.0,31.0
2021-08-01T10:53:00Z,00000200,00000000,0002.83,0001.86,0000.76,0000.78,0000.48,0000.08,0000.72,0000.70,0000.90,18.9,25.1,09.4,06.5,0678.9,31.0
2021-08-01T10:54:00Z,00000200,00000000,0002.19,0002.11,0001.00,0000.51,0000.14,0000.08,0000.76,0000.65,0000.28,18.9,25.1,09.3,06.4,0679.0,31.0
2021-08-01T10:55:00Z,00000200,00000000,0002.56,0002.15,0000.97,0000.78,0000.59,0000.11,0001.11,0000.75,0000.47,18.9,25.1,09.4,06.5,0678.9,31.0
2021-08-01T10:56:00Z,00000200,00000000,0001.72,0001.69,0001.05,0000.31,0000.39,-000.11,0000.04,0000.56,0000.88,18.9,25.1,09.4,06.5,0678.9,31.0
2021-08-01T10:57:00Z,00000200,40000000,,,,,,,0000.31,0000.32,-000.25,19.0,25.1,08.8,06.1,0678.9,31.0
2021-08-01T10:58:00Z,00000200,60000000,,,,,,,-000.07,-000.38,-000.18,18.8,25.2,09.5,06.4,0677.9,31.0
2021-08-01T10:59:00Z,00000200,20000000,,,,,,,-000.34,-000.25,-000.19,18.8,25.3,09.4,06.3,0677.9,31.0
